Simultaneous Nadir Overpasses (SNOs) Predictions

Prediction of SNOs between AQUA and METOP-A Satellite Orbit:

Table of predicted SNOs for the next 14.0 days since TLE Epoch: 7/18/2015
Index Date (AQUA) Time (AQUA) Lat,Lon (AQUA) SZA (AQUA ) Date (METOP-A) Time (METOP-A) Lat,Lon (METOP-A) SZA (METOP-A ) Distance(km) Time Diff (sec)
1 07/18/2015 06:58:17 73.73, 69.99 52.72 07/18/2015 06:57:05 73.70, 69.32 52.73 21.27 72
2 07/18/2015 07:47:46 -73.93,-122.80 127.07 07/18/2015 07:47:42 -73.95,-122.77 127.05 2.46 4
3 07/18/2015 08:37:14 73.99, 44.69 53.01 07/18/2015 08:38:20 73.98, 44.64 52.99 2.26 66
4 07/21/2015 02:32:31 73.89, 136.08 53.41 07/21/2015 02:31:23 73.86, 136.10 53.39 3.47 68
5 07/21/2015 03:21:57 -73.92, -56.35 126.55 07/21/2015 03:22:04 -73.91, -56.45 126.56 3.47 7
6 07/21/2015 04:11:28 74.10, 110.89 53.65 07/21/2015 04:12:40 74.09, 111.31 53.61 12.72 72
7 07/23/2015 22:06:42 73.86,-157.41 53.94 07/23/2015 22:05:45 73.87,-157.49 53.96 2.53 57
8 07/23/2015 22:56:09 -73.94, 10.06 125.97 07/23/2015 22:56:26 -73.93, 9.97 125.99 3.31 17
9 07/23/2015 23:45:47 74.49, 176.43 54.63 07/23/2015 23:46:54 74.49, 178.72 54.53 68.07 67
10 07/26/2015 17:40:54 73.91, -91.05 54.59 07/26/2015 17:40:06 73.92, -90.96 54.61 3.09 48
11 07/26/2015 18:30:21 -73.98, 76.43 125.33 07/26/2015 18:30:47 -73.98, 76.51 125.33 2.37 26
12 07/29/2015 13:15:04 73.92, -24.62 55.24 07/29/2015 13:14:27 73.92, -24.57 55.25 1.70 37
13 07/29/2015 14:04:31 -73.98, 142.87 124.68 07/29/2015 14:05:08 -73.98, 142.91 124.69 1.12 37




NCC Satellite Simultaneous Nadir Overpasses (SNOs) Prediction Service
